Theta_e
339 335 330 333 329 328 325 322 302 310 306 296 297 298 296 304 304 300 300 301 301 304 306 307 306 309 305 304 305 306 307 306 309 302 299 308 313 313 316 318 320 320 321 323 327 327 327 331 332 333 334 335 335 336 336 336 337 338 338 339 339 340 341 341 341 342 342 342 343 343 343 342 342 342 343 344 343 343 343 341 341 343 344 346 348 348 348 349 349 347 347 348 347 347 347 347 348
336 334 330 334 330 329 317 320 307 301 301 295 296 300 298 302 300 299 297 301 305 303 305 305 305 307 308 307 305 306 307 307 309 307 309 312 312 312 314 317 320 319 320 322 326 326 326 327 331 331 332 333 333 335 335 335 336 336 336 337 337 337 337 338 339 339 339 339 339 339 339 339 339 339 339 340 340 340 339 339 339 340 342 343 345 347 347 347 347 348 348 348 346 345 345 345 346
331 330 327 330 327 325 319 317 300 299 298 294 297 298 303 298 297 300 302 302 305 306 306 305 306 305 306 308 305 304 300 311 309 309 307 311 307 307 314 317 318 319 321 322 325 324 324 327 331 330 331 332 332 333 333 333 334 334 334 334 334 335 335 335 336 336 337 337 337 336 336 336 336 335 336 337 337 337 337 336 336 337 339 341 342 344 344 344 345 345 346 345 345 342 342 343 344
328 332 328 329 319 322 311 308 303 297 294 295 296 302 300 299 299 303 305 306 304 304 306 304 303 306 305 302 304 306 306 306 310 308 305 307 308 309 312 315 316 317 317 322 323 322 323 327 329 330 331 331 331 331 331 332 332 332 332 332 332 332 332 333 333 333 334 334 334 334 333 333 332 332 333 334 334 334 334 333 333 334 335 337 338 340 341 340 341 342 342 343 342 338 338 338 339
327 330 331 325 321 314 310 307 302 301 296 297 295 300 300 302 303 304 304 304 304 304 304 305 302 307 306 305 306 302 305 308 309 312 308 309 310 310 311 314 314 314 315 319 322 321 322 327 328 329 330 330 330 330 329 329 330 330 329 329 330 330 330 330 331 331 331 331 331 331 330 329 329 329 330 331 331 331 331 330 330 331 331 333 334 335 336 337 338 338 339 338 338 335 334 335 335
325 325 333 328 316 317 312 301 299 298 301 301 297 298 301 302 304 304 304 304 305 304 304 304 303 303 303 306 307 304 310 304 310 310 309 307 309 311 311 314 310 312 315 319 321 320 321 326 327 328 329 328 329 328 328 327 328 328 328 328 327 327 327 328 328 328 329 329 328 328 327 326 326 326 327 327 328 328 328 328 328 328 329 329 330 331 333 333 334 334 334 333 333 332 331 331 331
326 322 322 321 318 314 303 298 297 298 301 302 301 299 301 303 305 304 302 302 305 304 305 305 305 305 302 304 306 309 311 314 310 311 311 309 309 309 311 306 309 311 315 318 318 318 320 325 326 327 327 327 327 327 326 326 326 326 326 326 326 326 326 325 325 325 326 326 326 326 325 324 325 325 325 326 326 326 326 326 326 326 327 326 327 328 329 330 331 330 330 330 329 328 328 327 327
327 320 317 308 306 303 298 296 296 297 300 304 302 302 304 304 305 304 302 301 300 299 302 305 305 304 303 307 301 309 311 311 310 310 308 306 307 308 309 306 307 309 312 315 316 316 321 324 325 326 326 327 326 326 326 325 324 325 325 325 325 324 323 323 323 323 324 324 324 324 324 323 323 323 323 323 324 324 324 324 324 324 325 324 324 324 325 326 326 326 326 326 325 324 324 324 323
322 319 321 311 302 306 299 297 298 302 302 302 301 307 310 305 305 303 301 302 302 302 302 303 303 297 301 302 302 306 308 311 310 310 307 305 305 306 305 306 306 308 312 313 314 314 315 321 323 324 325 325 325 325 325 324 324 324 324 324 324 323 322 322 322 322 322 322 322 322 322 322 321 321 321 321 322 323 322 322 322 322 322 322 322 322 322 323 324 324 323 323 323 323 322 323 322
317 315 307 305 305 297 298 298 298 299 301 302 301 302 304 304 304 303 302 300 302 303 304 305 303 300 303 301 301 305 305 309 308 307 306 305 304 304 306 307 308 308 309 311 312 311 312 317 320 321 322 322 322 323 323 322 322 322 322 322 322 321 321 321 320 320 320 320 320 321 321 320 319 319 319 319 320 321 321 321 321 321 321 321 321 321 322 322 323 323 322 322 322 322 321 321 321
309 315 314 304 300 295 295 294 298 304 301 302 302 305 304 304 304 302 303 302 304 302 303 304 301 301 302 302 304 309 309 307 305 303 305 303 304 304 302 306 307 307 307 309 309 310 309 310 316 318 318 319 320 320 321 320 321 320 320 320 320 320 320 319 318 318 319 319 319 318 318 318 318 318 317 318 318 319 320 320 319 319 320 320 320 320 320 320 321 322 321 320 320 320 320 320 321
307 307 310 299 295 295 296 297 299 301 302 302 300 303 304 305 305 302 302 301 302 302 302 303 301 304 300 301 305 307 306 305 305 305 303 303 301 303 303 302 307 307 307 306 307 307 307 308 308 313 315 316 316 317 317 317 318 318 318 318 318 318 317 317 317 316 316 315 315 315 315 315 316 316 315 315 315 316 317 318 319 318 318 319 319 319 319 319 320 319 318 318 318 319 319 319 319
308 311 304 299 297 297 298 298 298 299 300 300 301 303 304 304 302 302 302 302 303 301 302 304 305 305 300 300 304 306 304 305 305 304 302 300 301 302 303 302 304 305 306 305 304 305 306 305 307 307 310 312 313 313 314 315 315 315 316 316 315 315 315 315 315 314 314 313 312 311 312 312 312 313 313 312 311 313 314 315 316 316 316 316 317 317 317 316 317 317 317 318 317 317 318 317 318
311 311 306 299 302 299 298 298 298 296 296 301 303 303 305 303 303 304 303 301 302 302 305 307 306 305 300 302 300 302 303 306 304 304 302 301 300 300 301 301 304 303 305 304 303 303 303 303 304 304 306 304 305 308 310 311 312 313 313 312 312 312 311 311 311 311 310 310 309 309 309 308 309 309 310 310 309 308 309 311 313 314 314 315 315 315 315 315 315 315 315 315 315 316 315 316 316
310 311 305 301 296 296 298 296 297 298 296 301 302 302 303 305 306 305 303 301 301 304 307 308 307 302 296 299 300 303 304 306 303 303 303 301 301 300 302 302 303 303 301 301 301 301 301 302 302 303 306 304 304 302 302 306 310 310 310 310 310 310 309 308 307 307 307 306 306 307 307 307 306 306 306 307 307 306 305 305 309 312 312 313 313 313 313 313 313 313 313 313 313 313 313 313 314
313 310 305 299 295 296 298 300 301 300 297 300 302 304 302 304 305 303 304 302 306 307 306 300 307 301 303 304 307 306 306 303 303 302 300 300 300 302 301 301 299 300 300 300 300 301 300 301 301 302 302 303 304 301 301 301 307 307 308 308 307 307 307 307 307 305 304 304 305 305 307 308 307 304 305 304 305 305 303 303 306 309 309 310 311 311 311 311 312 312 312 311 312 311 310 310 311
314 312 300 298 295 296 299 299 301 295 303 301 302 302 299 300 304 304 302 304 302 303 302 305 303 307 304 303 307 306 304 304 303 300 300 298 298 297 297 297 297 298 302 299 299 300 300 300 301 301 301 303 303 302 301 300 303 305 304 305 305 305 305 305 305 305 307 306 305 307 305 302 301 299 299 300 307 303 305 303 304 306 308 307 308 309 309 309 310 310 310 310 310 309 308 308 310
313 302 298 295 297 297 302 301 301 302 300 299 300 301 301 299 300 303 303 302 301 302 302 304 305 304 304 304 306 305 303 301 300 298 297 297 297 296 295 296 296 295 298 298 299 300 299 300 300 300 301 302 302 304 303 303 303 306 301 302 302 303 304 307 302 302 307 302 307 302 300 300 299 297 298 303 300 303 303 304 305 305 307 307 306 307 307 308 308 308 308 309 308 306 306 302 303
306 301 300 295 299 301 302 302 302 299 300 303 302 301 301 300 300 301 299 298 299 299 300 302 301 303 301 303 304 301 301 300 299 298 298 297 296 296 295 295 295 296 297 297 298 299 299 299 300 300 300 301 301 302 304 302 301 300 300 299 301 304 303 302 301 301 301 301 301 298 299 299 300 298 298 301 302 306 303 304 306 306 304 305 304 305 305 306 306 306 307 306 305 305 300 299 298
304 302 296 299 304 302 304 305 303 304 303 301 301 301 300 301 302 302 299 297 299 298 298 299 300 301 300 301 302 300 300 300 299 299 298 297 297 297 296 296 295 295 297 297 297 300 299 299 299 300 300 300 301 301 302 300 299 300 300 301 300 300 300 301 300 300 300 300 300 298 298 300 298 297 304 305 303 298 299 303 305 304 303 305 302 303 303 304 304 304 304 304 303 299 297 297 297
305 300 297 300 303 300 302 303 304 303 302 301 300 302 300 301 302 300 299 296 297 300 302 301 300 302 302 301 301 300 299 299 299 299 298 298 298 298 297 297 296 296 297 298 299 299 298 299 299 299 300 300 299 299 300 298 299 298 299 299 299 298 300 299 299 299 299 299 298 298 299 299 298 297 297 297 296 297 296 296 296 296 296 296 303 295 295 296 297 295 295 298 295 296 296 296 296
308 301 303 302 302 300 303 302 301 301 301 300 299 298 299 303 302 300 299 296 296 300 303 304 304 304 304 300 301 300 299 299 299 299 299 298 298 298 298 297 298 297 298 297 297 298 298 299 298 299 299 299 300 298 299 300 300 298 298 298 298 298 300 298 299 298 298 298 297 298 297 297 296 296 296 296 296 295 295 294 295 295 294 295 296 294 294 294 293 293 294 294 293 294 295 295 295
297 301 303 304 303 300 303 303 301 300 300 298 298 300 302 300 299 301 300 299 301 304 304 305 305 306 306 303 302 299 299 299 299 298 299 299 299 299 298 298 297 296 297 297 298 297 298 298 299 298 298 299 299 299 298 297 298 298 298 298 297 297 298 298 296 296 297 297 297 296 297 295 295 294 294 294 294 295 294 293 293 294 293 293 294 293 293 293 292 292 292 293 293 293 294 294 294
301 297 300 302 302 301 303 301 298 298 299 299 301 299 298 299 296 301 300 302 303 305 305 305 304 304 304 301 302 300 299 299 299 299 300 300 300 300 299 298 298 297 297 297 297 297 298 298 299 298 298 299 298 299 296 296 298 298 298 296 297 298 297 296 295 295 298 295 296 295 296 295 294 293 293 293 293 293 294 294 294 293 293 293 294 293 293 291 291 292 292 292 292 292 292 293 293
298 298 301 301 302 302 302 299 297 299 299 299 300 297 298 299 299 300 300 302 303 304 305 303 303 303 303 302 301 301 300 300 300 300 300 300 300 301 301 298 297 297 297 297 297 297 297 298 299 298 298 299 298 297 296 296 297 296 295 295 294 298 296 296 295 296 295 294 296 295 295 294 293 293 292 293 293 293 293 293 292 292 293 292 292 291 292 291 291 291 291 291 291 291 291 291 292
301 301 301 302 301 302 300 300 300 299 300 299 297 297 298 299 301 298 301 302 304 304 303 303 302 301 302 302 302 302 301 301 301 300 300 300 301 300 300 299 297 297 297 297 297 296 297 298 298 297 298 298 298 297 296 296 296 295 296 295 293 297 295 295 295 294 294 294 293 295 294 294 293 292 292 292 292 292 292 292 292 292 292 292 291 291 291 290 290 290 291 291 291 291 291 291 292
301 300 300 299 300 301 301 300 301 300 299 299 297 296 297 299 298 295 301 303 303 303 303 304 302 300 301 302 302 302 302 302 301 302 300 300 300 300 300 299 298 297 298 297 297 296 297 297 297 297 297 298 297 296 295 296 296 296 296 295 294 295 294 295 295 294 294 293 293 294 294 293 293 293 292 291 291 291 291 291 291 291 291 291 290 290 291 291 290 290 291 290 291 291 290 290 291
301 300 298 299 300 300 301 301 300 299 298 299 298 296 297 298 297 296 301 301 303 302 302 302 303 301 300 301 301 302 302 303 303 302 300 299 299 299 299 299 298 297 297 297 297 296 296 296 296 296 297 297 296 296 297 296 295 296 296 294 294 295 295 294 293 294 294 292 294 294 293 292 292 292 292 292 291 291 290 290 291 291 290 290 290 289 290 291 291 291 291 292 291 291 290 290 291
299 298 295 298 299 298 300 299 300 299 298 299 300 295 294 295 294 299 301 302 301 300 300 301 302 302 300 300 300 300 301 302 302 302 301 301 300 300 299 300 299 297 297 298 297 297 296 296 296 296 296 297 296 296 296 295 296 296 295 294 295 296 294 294 293 293 292 293 293 293 292 292 291 291 291 291 292 290 290 291 290 291 290 290 290 289 290 290 289 289 290 291 289 290 289 289 291
300 298 295 296 296 296 300 302 301 298 298 299 298 286 292 294 297 300 302 301 300 299 299 299 300 300 300 300 300 300 301 301 301 303 303 302 301 300 300 300 300 298 297 297 297 296 297 297 297 296 295 296 295 296 296 295 295 294 295 294 295 294 292 292 293 293 293 292 292 292 292 291 291 290 290 291 290 289 290 290 290 290 289 289 289 289 288 289 288 289 289 288 290 289 288 288 288
294 298 298 291 290 291 300 301 299 297 298 298 298 288 291 296 298 300 302 301 299 298 298 298 300 300 299 299 299 300 300 301 302 303 303 303 302 301 300 300 300 299 297 297 297 296 296 296 297 295 297 295 296 296 295 295 295 294 294 293 293 293 293 292 291 292 291 291 292 291 292 291 290 291 291 289 289 289 289 288 289 289 290 289 288 288 288 288 288 288 288 287 287 287 287 288 288
296 292 289 293 290 293 298 300 299 296 296 298 296 288 291 296 298 300 302 300 300 298 298 298 299 299 300 300 299 299 300 301 302 302 303 303 303 301 300 300 300 299 298 297 297 297 296 295 296 295 296 295 295 295 295 295 295 294 293 295 292 293 291 292 290 291 291 290 291 291 291 290 290 290 290 290 289 288 288 288 288 289 289 288 288 288 288 287 287 289 288 287 286 286 287 286 287
296 292 289 291 293 294 296 297 297 299 295 296 295 290 293 294 297 298 300 300 299 298 298 298 299 300 300 299 299 299 300 300 301 301 302 303 303 302 301 300 300 299 298 298 297 296 295 295 295 294 294 294 294 295 295 294 294 293 293 293 293 293 291 290 290 291 291 291 290 291 291 290 290 290 289 289 287 288 287 287 287 288 288 288 287 287 287 288 286 289 287 288 286 285 285 285 285
292 294 291 294 292 294 292 295 296 297 295 292 295 292 293 296 297 298 299 299 298 297 297 298 299 299 300 299 299 299 299 299 299 300 301 303 303 302 301 301 300 299 298 298 297 296 295 295 294 294 294 294 294 294 294 293 293 293 292 292 293 291 292 291 290 290 290 289 289 290 291 290 290 289 289 288 287 287 287 287 288 288 288 288 287 286 286 287 286 286 286 286 286 285 284 284 284
290 291 290 291 293 295 295 293 295 295 295 293 292 291 293 295 297 299 299 298 298 298 298 298 299 299 300 300 300 299 299 299 300 300 301 302 302 302 301 300 300 299 298 297 297 296 295 295 295 295 294 294 294 294 294 293 293 292 291 291 291 291 292 290 290 289 289 290 289 290 290 289 290 289 289 289 287 287 286 287 287 288 287 287 286 285 285 286 287 286 285 285 286 285 284 285 285
293 293 292 292 291 292 293 297 295 296 293 292 292 291 292 294 296 298 299 300 299 299 299 299 299 300 300 300 300 300 300 300 301 301 301 302 302 301 300 299 299 299 298 297 297 296 295 294 294 294 294 294 294 294 293 292 291 291 290 290 289 290 290 290 290 289 290 289 291 290 290 289 289 289 288 288 287 286 286 286 286 287 287 286 285 285 284 284 285 284 284 284 284 285 286 285 285
296 295 293 293 292 294 297 297 295 296 293 292 292 293 294 295 297 298 300 300 299 299 298 298 298 299 299 299 300 300 300 300 301 302 301 301 301 301 300 298 298 297 297 296 296 295 295 294 294 293 294 294 293 293 292 291 290 289 289 289 289 289 289 289 290 289 289 289 290 290 289 288 288 288 288 287 286 287 285 285 285 286 286 285 285 284 285 285 285 285 284 285 284 283 283 284 284
296 294 293 292 292 291 295 296 293 295 292 290 293 293 293 295 297 298 299 299 298 299 298 299 299 300 300 299 300 300 300 301 301 300 300 300 299 299 298 297 297 296 295 295 295 295 295 294 294 293 293 293 293 293 292 291 291 290 290 289 289 289 289 289 288 288 289 290 290 289 289 288 288 287 287 287 286 286 285 285 285 285 285 285 285 285 285 287 285 284 285 283 284 283 282 283 284
295 293 291 290 292 294 297 295 293 294 292 289 292 291 293 295 297 298 298 299 300 300 300 300 300 299 300 300 299 299 298 299 299 299 299 299 299 298 297 296 296 297 295 295 295 295 294 294 293 293 293 293 292 293 292 291 291 291 290 289 290 289 289 290 289 289 289 289 289 288 288 288 288 287 287 287 286 285 285 284 284 284 285 285 284 283 284 283 284 283 283 282 281 282 283 284 283
293 291 288 288 292 291 288 294 293 292 291 289 290 290 292 295 297 298 299 300 300 301 301 301 301 300 299 300 300 299 298 299 297 297 298 298 298 297 296 295 296 296 295 294 294 294 294 294 293 293 293 292 292 293 292 291 291 291 291 291 291 290 289 290 289 289 289 288 288 288 288 288 288 287 287 286 286 285 284 284 284 284 284 284 284 283 282 282 283 283 283 283 282 280 280 280 284
293 293 291 290 291 293 292 292 291 293 292 293 290 289 289 292 292 294 297 299 299 300 300 300 300 301 301 302 301 302 299 299 298 297 297 296 296 296 296 295 295 295 295 294 294 294 294 294 293 293 293 292 292 293 292 292 292 291 291 290 289 288 288 287 286 286 287 287 287 287 287 287 287 286 286 286 286 285 285 284 283 283 283 284 284 283 282 282 282 283 283 282 281 280 279 280 281
291 294 294 293 294 293 293 295 294 290 289 291 291 285 285 290 293 294 294 295 295 297 297 297 299 299 300 299 300 301 302 300 299 298 297 297 296 296 295 294 294 294 295 295 294 294 294 294 293 293 293 292 292 292 292 292 291 290 288 287 285 285 285 285 285 285 285 286 286 287 287 287 287 286 285 286 285 285 284 284 283 283 283 283 284 283 282 282 282 282 282 282 281 281 280 279 278
288 290 296 296 295 294 293 293 292 284 282 290 292 282 283 288 290 292 293 292 293 295 295 297 298 299 299 297 299 299 301 300 299 299 298 296 296 295 295 294 294 294 295 295 294 294 294 294 293 293 292 292 292 291 292 292 290 289 288 288 287 286 285 285 286 286 286 286 287 287 286 287 286 286 285 285 285 284 284 283 283 283 282 282 283 282 281 281 282 282 283 282 281 283 281 278 278
288 292 293 295 294 293 293 293 291 288 291 292 291 289 283 285 289 292 294 292 293 293 294 296 297 298 298 298 298 299 301 301 299 299 298 297 296 296 295 295 294 295 295 295 294 294 293 293 293 293 292 292 292 291 291 291 290 289 288 287 287 286 286 285 286 287 287 287 286 286 286 286 286 285 285 284 284 284 284 283 283 282 282 282 282 281 281 281 282 283 282 282 281 281 280 279 278
291 292 295 293 295 294 293 290 287 286 284 283 286 290 282 283 287 293 293 290 291 292 293 294 296 297 297 298 299 300 301 301 300 299 298 297 296 296 295 295 295 295 295 295 294 293 293 293 293 292 292 291 291 291 291 291 290 289 288 287 286 287 286 287 287 288 287 287 285 285 285 284 285 285 285 284 284 284 284 283 282 282 281 281 282 282 281 281 281 280 280 280 280 280 280 280 279
294 293 294 294 293 292 292 286 286 284 282 281 284 289 281 284 290 289 290 291 290 292 293 295 296 297 297 299 298 301 301 300 300 300 299 298 297 296 296 296 295 295 295 295 294 293 293 292 292 292 291 291 291 291 291 290 289 289 288 287 286 286 287 287 286 285 285 285 284 284 283 283 283 284 284 284 283 283 283 282 282 281 281 281 282 280 280 280 281 280 280 280 280 280 280 280 279
294 294 293 291 290 287 286 286 284 282 279 283 287 288 286 281 287 287 287 289 292 293 294 295 296 296 296 298 299 301 301 300 299 299 299 298 296 296 296 295 295 294 294 294 293 293 292 292 292 291 291 291 291 291 290 290 289 289 288 287 287 286 287 286 285 284 284 283 283 283 283 283 283 283 283 283 283 283 282 282 281 281 281 281 281 280 280 280 280 280 281 280 280 280 279 279 280
294 288 286 287 284 284 283 283 283 277 279 283 287 288 288 279 280 290 293 294 295 295 294 294 294 296 297 298 299 302 300 299 299 299 297 296 295 295 295 294 294 294 293 293 293 293 292 292 292 291 291 291 290 291 290 289 289 288 288 288 287 287 287 286 285 284 284 283 283 283 283 282 282 282 282 282 282 282 282 281 281 281 280 280 280 280 280 280 280 280 279 279 279 279 279 279 278
292 286 286 281 280 281 278 279 275 276 279 282 286 288 284 283 289 291 293 292 295 295 295 295 296 296 297 299 300 301 300 299 299 298 297 296 295 294 294 294 293 293 293 293 293 292 292 292 291 290 290 290 290 290 289 289 289 288 288 288 288 288 287 286 285 284 284 283 283 283 282 281 281 281 281 280 280 281 281 280 280 279 279 280 280 280 280 280 279 279 278 278 278 278 278 278 277
288 285 283 280 276 276 274 277 279 279 283 284 284 288 284 287 289 294 293 293 295 296 296 294 294 294 296 298 300 300 299 299 298 298 297 296 295 295 294 294 293 293 292 293 292 292 292 292 291 290 290 290 290 290 289 289 288 288 288 288 288 288 287 286 285 285 284 284 283 283 282 282 281 281 281 280 281 281 281 280 280 280 279 279 279 279 279 279 279 278 278 277 277 278 278 277 277
287 288 287 284 282 278 273 276 276 278 281 282 284 279 277 278 284 294 297 298 295 297 298 295 294 295 295 295 299 299 297 296 297 297 297 296 296 295 295 294 293 293 292 292 292 292 291 291 291 290 290 290 289 289 289 288 288 288 288 288 288 287 287 286 285 285 284 283 283 283 282 281 281 281 281 281 281 280 280 280 279 279 279 278 279 278 280 278 278 278 278 277 278 277 277 277 277
286 289 290 284 283 285 282 283 281 279 279 280 279 279 281 287 292 293 297 297 297 296 296 295 295 295 296 298 298 298 297 297 297 296 296 296 296 295 295 294 294 293 292 292 292 292 291 291 291 290 290 290 289 289 289 288 288 288 287 287 287 287 286 286 285 285 284 284 283 282 281 281 280 280 280 280 280 280 279 278 278 278 278 278 278 277 277 277 276 276 276 276 276 278 277 276 276
286 288 283 286 289 288 282 283 283 281 279 280 282 283 287 291 293 294 294 293 294 295 295 294 294 295 296 297 297 296 297 296 296 296 296 296 295 295 295 294 294 293 292 292 292 292 291 291 290 290 290 290 289 289 288 288 288 287 287 286 286 286 285 284 284 283 283 282 282 281 281 280 280 279 279 279 279 278 278 278 277 277 277 277 277 276 276 276 276 276 276 276 276 276 276 275 276
287 281 284 291 291 288 284 277 280 278 276 280 284 281 283 283 282 289 292 291 293 293 294 295 296 296 295 296 297 297 297 296 296 296 297 297 296 296 295 295 294 294 293 292 292 292 292 291 291 290 290 289 289 289 288 288 287 287 286 286 285 285 285 284 283 282 282 281 280 280 279 279 278 279 279 279 278 277 277 279 277 276 276 276 276 276 276 276 276 276 276 276 276 275 275 275 275
286 284 291 285 279 278 283 281 274 274 274 277 281 283 283 285 285 289 286 289 291 293 294 295 295 295 294 295 296 296 296 295 296 296 296 297 296 296 296 295 295 294 293 293 292 292 292 291 291 290 290 290 289 289 288 288 287 287 286 285 285 284 284 283 282 282 281 280 279 279 278 278 278 278 278 278 277 277 277 276 276 276 276 276 276 275 275 275 275 275 275 275 275 275 274 274 274
290 289 285 288 282 280 280 282 280 279 277 276 279 282 281 288 288 288 289 290 291 292 292 293 294 294 294 295 296 296 297 298 297 296 297 297 297 295 295 294 294 294 293 293 292 291 291 291 290 290 290 289 288 288 287 287 287 286 285 285 284 283 283 282 281 281 280 279 279 278 278 277 277 278 277 277 276 276 276 276 276 276 276 275 275 275 275 274 274 274 274 274 274 274 273 273 273
282 283 280 284 282 284 282 283 281 279 276 276 276 277 283 288 291 291 291 292 292 292 292 293 294 294 295 295 296 296 297 298 298 297 296 296 296 294 293 293 293 291 291 291 291 290 290 290 289 290 289 288 288 288 287 286 286 285 284 283 283 282 281 281 280 280 279 278 278 278 277 277 277 277 276 276 276 276 276 276 275 275 275 274 274 273 274 274 273 273 273 273 273 273 273 273 273
287 287 284 286 283 280 278 278 284 281 280 277 277 277 284 291 294 293 292 293 293 293 294 294 294 294 294 294 294 295 296 298 299 298 297 296 295 294 291 289 289 289 290 290 290 289 288 288 289 289 288 288 287 287 286 286 285 285 283 283 282 281 281 280 279 278 278 278 277 277 277 277 276 276 276 276 276 276 275 275 275 274 274 274 273 273 273 273 273 273 273 273 273 272 272 272 272
Wind_Speed
7 6 6 6 4 3 3 2 2 2 2 5 4 4 1 4 3 3 1 3 0 2 3 2 2 2 2 2 4 2 5 2 1 0 2 1 3 5 3 2 2 3 3 3 6 7 6 6 10 10 10 10 11 11 12 12 12 13 13 12 12 13 13 13 14 14 13 14 15 15 15 16 16 15 16 16 16 16 15 15 16 15 16 17 17 16 17 17 16 14 15 15 17 16 16 16 16
7 4 3 2 3 2 1 2 1 3 3 4 8 3 4 4 1 2 3 3 1 2 3 4 2 4 5 5 3 3 6 7 4 4 3 4 5 4 3 1 3 3 2 3 7 7 5 3 10 9 9 10 10 11 12 12 13 13 13 12 12 12 12 12 13 13 13 14 14 15 15 15 15 16 16 16 17 16 15 16 16 17 16 17 17 17 18 18 18 17 18 18 18 18 17 16 16
6 6 4 3 3 2 3 1 2 3 3 5 2 4 3 4 3 1 2 5 6 6 5 5 2 3 1 0 2 1 0 3 9 6 4 7 6 3 4 3 2 4 2 4 7 7 4 4 8 10 10 10 10 12 12 12 13 13 13 13 13 13 12 13 12 13 14 14 14 14 14 14 15 15 15 15 15 15 15 16 16 16 16 17 17 18 17 19 19 19 18 18 17 17 16 17 16
4 5 3 2 1 2 2 2 2 4 4 6 2 1 2 4 4 10 9 6 5 5 2 2 1 0 1 3 1 1 5 3 4 7 4 6 0 7 6 4 6 4 2 4 7 5 3 6 9 10 10 10 11 12 12 13 12 12 12 12 12 12 12 12 13 13 13 13 13 14 14 14 14 15 15 15 15 15 15 15 15 16 16 16 17 18 18 17 17 18 17 17 18 17 16 16 16
3 4 2 2 1 2 1 2 3 3 6 3 1 1 2 1 9 7 5 4 3 2 1 2 1 1 2 1 1 1 2 4 3 5 3 3 5 6 5 5 4 4 3 6 8 6 4 9 10 10 10 11 12 12 12 12 12 12 12 12 12 12 12 13 13 13 13 13 13 14 14 14 14 14 14 14 14 15 15 15 15 16 16 16 16 16 16 16 16 16 17 16 17 16 16 15 15
4 4 3 0 1 1 1 2 3 6 9 4 3 3 1 2 9 8 5 4 4 5 5 3 1 2 1 0 3 2 1 2 4 4 4 3 6 6 5 4 5 4 4 8 7 5 4 9 10 10 11 11 11 12 12 11 11 12 12 12 12 12 12 12 13 13 13 13 13 13 14 14 14 14 14 14 14 15 15 15 16 16 16 16 16 16 16 16 16 16 16 16 15 15 15 15 15
2 2 1 1 3 2 2 3 5 7 1 3 2 3 3 4 10 9 5 4 2 3 0 1 3 0 1 1 4 2 1 2 4 1 5 6 6 5 5 3 5 5 5 7 7 5 4 9 10 11 11 11 11 12 12 11 12 12 12 12 12 12 12 12 12 12 13 13 13 13 13 13 14 14 14 14 14 14 15 15 15 15 15 15 15 15 15 15 15 15 15 15 15 14 14 14 14
2 0 2 2 2 2 3 5 7 6 2 2 1 4 3 7 8 6 5 3 4 3 4 0 1 0 1 4 2 1 4 5 7 9 12 7 6 5 4 4 5 4 6 7 7 5 6 9 10 11 11 11 11 11 11 11 12 12 12 12 12 12 12 12 12 12 13 13 13 13 13 13 14 14 14 14 14 14 14 14 14 14 14 14 15 15 15 14 14 14 14 14 14 13 13 13 13
2 1 1 1 2 2 3 5 7 6 3 2 4 3 3 6 5 5 5 2 4 2 8 5 3 4 1 2 1 3 4 6 7 9 9 9 7 5 4 5 5 5 6 7 7 5 3 7 10 11 11 11 11 11 11 11 12 12 12 12 12 12 12 12 12 12 13 13 13 13 13 13 13 14 13 14 13 14 13 13 13 13 13 14 14 14 14 14 14 14 14 13 13 13 13 13 13
1 2 1 1 1 4 4 5 7 5 1 3 3 3 2 4 3 4 6 4 4 3 6 6 5 3 4 2 2 2 4 7 8 7 7 8 7 5 3 5 7 6 5 6 6 5 3 8 11 11 11 11 11 11 11 11 11 11 12 12 12 12 12 12 13 13 13 13 13 13 13 13 13 13 13 13 13 13 13 13 13 12 12 13 13 13 13 14 14 14 14 15 14 14 13 13 13
2 2 1 1 3 4 5 7 3 1 3 0 2 2 2 4 3 3 4 4 6 3 5 8 3 7 3 2 2 3 10 8 9 10 7 7 6 5 5 5 6 5 6 6 7 6 4 4 11 12 11 12 11 11 11 11 12 12 12 12 12 12 12 12 13 13 13 13 13 13 13 13 13 14 14 13 13 13 13 13 13 12 12 13 12 13 13 13 13 14 14 14 14 14 14 14 14
2 3 2 3 4 4 5 3 6 3 4 3 3 4 2 3 2 3 4 4 5 4 4 8 1 4 4 4 2 3 8 8 6 8 8 6 6 6 6 4 5 6 5 5 6 6 6 4 4 9 12 12 11 11 11 11 12 12 12 12 12 12 12 12 13 13 13 13 13 13 13 13 13 14 14 14 14 13 14 14 13 13 13 13 13 13 13 13 13 13 14 14 14 15 15 15 14
2 3 3 3 3 4 6 6 4 5 4 4 5 4 4 3 4 4 3 4 5 5 5 9 3 0 2 4 2 6 8 8 8 8 9 7 6 7 6 6 5 6 5 5 5 7 6 6 6 4 7 12 11 11 11 11 11 12 12 12 12 12 12 12 12 12 12 11 12 12 12 12 13 13 14 14 14 14 13 13 13 13 13 13 13 13 13 13 13 13 14 14 15 15 15 15 14
2 2 3 3 4 5 5 4 4 4 3 4 5 5 2 2 4 3 2 4 5 6 1 14 1 2 4 4 2 5 7 9 11 9 7 7 6 6 6 6 6 5 5 5 6 5 6 7 7 6 6 6 6 7 9 11 10 11 11 11 11 11 12 12 12 11 11 10 10 10 10 12 11 11 12 12 14 13 12 12 12 12 13 12 12 12 12 12 13 13 13 14 14 15 15 15 13
1 3 1 3 3 4 4 5 2 2 4 2 2 3 1 3 0 2 4 4 2 3 0 4 3 3 2 6 2 6 9 11 12 8 7 7 6 5 6 6 5 5 5 6 6 6 5 8 8 8 7 7 7 6 4 6 11 10 11 11 11 11 11 11 11 10 8 8 7 7 8 9 10 9 9 9 9 12 11 10 11 11 11 12 11 10 10 11 11 11 11 12 12 13 14 14 13
1 3 1 2 4 3 3 1 2 1 2 3 2 2 2 2 1 1 0 2 2 1 0 1 2 2 0 1 1 7 14 12 11 8 8 8 6 5 6 5 4 4 4 4 5 5 5 6 6 6 5 5 5 7 6 5 8 10 10 10 10 10 9 8 8 8 6 3 3 3 3 6 7 6 7 4 6 6 8 6 8 9 10 11 10 9 10 10 11 10 11 12 12 11 13 12 12
1 0 2 3 6 5 4 3 0 3 1 3 2 3 3 3 2 1 2 2 1 3 2 2 4 1 1 2 3 13 12 12 10 9 7 6 6 6 5 5 6 4 3 4 4 5 5 5 6 5 4 5 6 6 6 5 6 12 9 10 10 9 7 6 6 5 6 2 3 6 3 3 5 4 3 2 3 2 4 4 6 9 9 11 12 10 10 11 11 11 11 13 11 12 12 12 10
1 2 2 4 6 7 2 2 1 1 1 2 3 3 2 3 2 2 1 3 3 3 4 3 3 4 5 4 7 11 12 13 11 12 8 7 6 6 6 6 6 7 6 6 5 5 5 5 5 6 5 5 5 5 5 5 5 8 7 5 5 5 5 6 3 2 3 0 2 3 3 2 4 4 2 2 1 1 1 2 3 6 9 10 14 10 11 13 12 12 12 13 12 12 11 6 5
3 2 3 6 3 1 1 2 4 2 3 2 3 3 2 3 7 2 2 3 6 6 8 5 5 4 9 6 10 13 12 12 12 11 12 11 10 10 9 7 7 7 7 6 6 8 6 6 5 6 6 5 6 5 5 5 5 5 5 5 4 6 4 3 4 3 1 1 1 4 3 1 2 3 2 2 1 1 0 2 5 7 12 12 15 13 14 14 14 14 14 14 14 12 6 5 5
4 2 4 6 2 4 4 2 2 1 2 3 4 4 4 4 2 3 3 4 5 11 8 6 9 10 9 9 11 12 12 12 12 12 13 12 11 10 10 10 9 9 9 8 7 6 7 7 6 7 7 6 6 6 5 6 5 6 6 6 6 5 4 4 4 3 2 1 2 3 2 0 3 5 4 7 6 5 6 8 9 9 10 9 14 7 10 11 15 12 13 14 8 5 6 6 6
3 3 4 4 0 2 2 3 1 2 3 3 4 2 2 3 3 4 2 3 9 11 10 11 13 13 10 13 12 12 12 12 12 11 12 12 11 8 10 11 11 9 8 7 7 8 8 8 7 7 7 7 6 7 6 7 6 5 5 4 5 5 4 5 5 4 2 2 3 1 2 1 4 4 4 4 4 5 5 5 5 5 6 5 8 5 6 6 6 6 6 7 6 6 6 6 6
2 6 6 7 6 3 2 3 6 2 3 1 4 4 5 2 4 5 5 8 10 6 8 12 12 10 10 14 14 13 13 13 14 13 13 14 14 13 9 7 7 7 8 9 10 9 9 9 8 7 7 6 5 6 5 6 6 6 5 5 5 4 4 3 5 5 4 2 3 2 2 3 4 5 4 4 4 5 5 5 5 4 6 4 5 6 5 5 6 6 6 6 6 7 6 6 6
5 6 9 12 11 6 0 1 1 1 1 3 2 4 3 4 3 5 8 13 14 2 1 2 3 8 9 17 15 14 14 15 15 16 15 14 14 13 12 10 11 11 9 10 9 9 9 8 9 8 8 7 6 6 4 6 5 6 5 5 5 5 4 4 5 5 4 2 3 3 3 3 4 4 4 4 4 5 5 5 5 4 4 5 4 5 4 5 6 6 6 5 6 6 6 6 7
4 6 5 8 5 5 6 1 5 2 3 4 1 3 2 3 9 4 11 15 15 9 6 1 1 5 8 14 14 18 18 17 18 18 17 18 17 17 13 12 10 8 8 9 9 9 10 11 10 10 8 7 6 6 6 6 4 6 5 3 3 5 5 5 4 6 5 4 3 3 3 3 4 4 4 4 3 3 3 4 3 4 4 3 4 5 5 6 6 6 5 5 6 5 6 6 6
4 7 6 8 3 3 3 2 3 3 4 4 2 3 7 6 6 3 18 13 11 11 11 6 3 4 6 11 13 13 13 12 13 12 10 9 9 10 9 7 8 9 10 10 10 10 11 11 11 11 9 9 7 6 6 6 6 6 6 4 5 4 4 5 6 4 6 5 3 3 2 3 3 4 3 3 3 3 3 3 3 3 4 3 4 5 5 6 6 6 6 6 6 6 7 7 6
5 9 5 6 4 4 4 4 4 5 3 4 4 9 8 7 7 13 24 15 11 6 7 7 5 5 7 10 13 13 13 14 13 12 14 11 9 11 12 11 9 12 12 10 11 9 10 11 12 12 11 10 8 7 7 7 7 7 6 5 5 3 5 5 4 4 6 6 4 3 2 3 3 3 3 2 3 3 2 3 3 2 3 3 4 5 5 5 5 6 5 4 5 5 6 7 6
1 3 5 6 9 8 4 6 5 6 5 5 7 8 8 5 6 12 11 14 11 12 12 9 7 8 9 7 9 11 13 14 16 12 8 9 10 13 13 12 11 11 10 12 10 9 10 11 11 11 11 9 8 8 7 7 7 7 6 6 6 4 6 5 4 5 5 6 4 3 3 2 3 3 3 2 3 2 3 3 1 2 3 3 5 5 4 4 4 5 5 5 4 6 6 6 6
5 3 5 8 11 12 10 9 9 4 5 7 6 8 5 3 3 16 17 2 4 10 12 11 11 9 8 9 8 8 11 11 10 10 14 13 13 13 13 14 13 10 12 12 10 9 11 12 12 11 11 10 10 8 7 8 8 7 6 7 6 6 6 5 5 5 6 6 4 3 4 2 2 4 3 3 1 2 3 2 1 2 2 4 4 5 5 4 4 4 4 4 4 4 5 6 6
3 3 6 10 9 11 10 13 12 7 6 7 6 4 10 8 11 20 22 8 3 4 5 8 11 11 9 8 9 8 11 10 10 12 15 15 12 12 15 14 14 12 8 11 11 11 13 12 12 11 11 10 11 10 8 8 8 8 7 7 6 6 6 5 5 6 6 5 4 4 4 2 1 3 3 2 1 2 3 1 1 1 2 5 4 4 4 4 5 5 5 4 5 6 6 6 5
3 3 4 12 9 11 15 12 11 9 4 8 7 4 10 12 22 20 20 9 9 7 7 7 7 7 7 7 9 10 9 9 11 15 13 13 12 13 14 13 14 12 9 9 11 13 11 8 9 9 11 11 10 8 8 8 7 7 7 7 6 6 5 6 6 5 6 6 5 4 4 2 3 3 2 3 1 3 2 1 2 1 3 4 3 4 4 5 5 4 4 5 5 5 6 6 6
3 5 5 6 4 8 6 9 10 11 4 11 4 6 11 11 12 22 18 7 10 12 10 8 8 7 7 8 9 11 12 13 15 15 13 13 12 11 13 12 13 13 9 10 14 13 12 11 9 9 10 11 9 9 9 8 7 7 7 7 7 6 6 6 6 6 5 7 6 5 4 4 3 3 1 1 2 1 2 2 2 2 4 3 3 4 4 4 5 4 4 5 5 4 5 5 5
4 2 6 4 7 9 5 2 15 12 2 7 6 6 13 15 14 9 17 7 11 10 9 9 9 9 10 10 11 11 12 13 14 12 13 14 13 12 14 14 14 14 14 13 12 12 13 12 11 10 11 12 9 10 8 9 9 7 7 7 7 5 7 7 6 7 6 7 7 6 5 4 4 4 2 1 1 2 1 1 1 3 3 2 2 3 3 4 4 4 3 4 5 5 5 6 5
6 8 6 6 6 9 5 5 6 8 5 5 13 8 3 7 4 3 1 10 9 9 7 8 11 12 12 10 10 11 11 10 10 12 12 13 12 12 13 14 15 16 14 13 14 13 13 13 12 13 13 13 10 10 9 8 8 8 7 8 7 5 7 7 7 7 7 6 7 7 6 5 4 4 3 3 2 2 2 2 1 2 2 1 1 2 2 3 3 3 3 2 3 6 6 6 6
5 5 8 7 8 5 7 2 3 6 8 7 12 10 14 9 5 1 0 4 8 8 9 9 9 9 11 9 10 12 12 11 13 13 14 12 11 12 11 12 13 14 13 14 14 15 15 13 12 12 11 11 10 10 9 9 8 7 7 7 7 6 6 6 7 7 6 6 6 7 7 6 5 4 4 3 2 2 2 1 1 1 0 0 1 2 2 2 3 3 3 2 4 5 6 6 8
4 4 4 6 7 11 10 4 4 6 7 6 8 13 16 14 11 13 8 5 7 10 10 10 12 11 12 11 10 11 12 13 15 11 12 12 12 11 11 11 11 13 11 13 13 13 12 11 10 11 12 12 10 9 8 8 8 6 7 6 7 6 5 6 7 7 7 6 6 6 7 6 6 5 4 3 3 2 2 1 1 0 1 0 0 1 2 2 2 3 4 6 4 4 6 6 7
9 9 9 7 9 8 9 7 3 13 8 9 10 12 15 17 15 15 15 12 13 13 11 12 13 12 13 12 11 11 11 15 11 9 12 12 12 11 10 10 10 11 11 12 13 13 12 12 10 10 10 11 9 9 9 8 8 8 9 6 6 6 6 6 7 7 6 7 6 7 6 5 6 5 4 4 2 2 1 1 0 0 0 1 1 1 2 2 2 3 3 4 7 6 5 6 5
13 10 8 11 9 10 12 12 5 8 4 11 14 14 12 16 15 11 13 11 9 11 9 10 10 13 13 12 12 14 13 14 7 11 13 13 13 12 10 9 10 11 12 13 14 14 14 15 13 14 12 13 11 11 10 11 11 8 6 9 9 8 8 7 6 7 7 7 7 7 7 6 6 5 4 4 4 3 2 1 2 1 1 1 1 2 1 2 2 2 3 3 5 6 5 4 5
15 12 9 11 6 14 13 11 3 5 6 5 10 10 13 17 15 13 11 11 15 13 11 14 16 16 13 12 14 14 13 3 6 6 8 9 10 9 9 9 9 13 11 13 15 15 14 15 15 14 12 12 12 12 12 11 10 12 11 10 8 9 9 9 8 7 7 6 7 7 7 5 6 6 5 4 3 4 3 2 1 1 1 1 1 1 1 1 3 3 3 3 2 4 5 5 7
7 6 5 7 10 12 13 6 3 1 4 8 7 11 13 16 16 16 13 15 13 11 13 16 15 16 13 12 13 11 6 6 7 9 9 11 10 10 10 10 11 14 14 15 14 14 14 14 13 13 12 13 12 12 11 11 9 8 8 7 9 7 5 6 6 6 6 7 7 7 6 6 7 5 6 5 4 4 4 3 2 2 1 0 1 1 1 2 2 3 3 4 5 2 4 4 4
8 7 5 11 9 7 8 2 2 3 5 2 4 9 10 12 15 19 19 19 17 15 16 17 16 15 16 17 15 7 7 8 10 10 11 10 11 11 10 11 11 11 11 11 12 15 12 13 13 14 13 12 12 12 11 9 9 7 6 8 7 8 7 7 6 7 7 7 7 7 6 6 6 6 6 5 4 4 3 4 3 1 1 0 1 1 1 2 2 3 3 2 2 6 3 3 2
7 9 9 10 11 11 9 4 4 5 7 7 6 11 11 12 17 14 15 16 14 14 13 14 15 14 15 14 9 7 8 10 10 9 9 10 11 13 14 12 10 12 12 13 14 15 12 15 15 15 13 13 11 11 12 10 9 8 7 7 6 7 6 6 6 5 6 6 6 6 7 6 6 6 6 6 5 5 4 4 3 2 1 1 0 1 2 3 3 2 2 3 3 4 5 3 2
8 7 11 14 13 12 10 9 6 4 5 5 2 9 10 9 17 18 5 0 6 8 9 13 15 14 15 10 12 9 7 9 14 14 14 14 14 11 10 11 12 12 14 13 13 14 12 13 13 13 11 11 12 12 13 12 11 12 11 11 10 7 8 8 10 11 9 9 8 6 6 7 6 6 6 6 5 4 4 4 3 3 2 2 2 3 3 2 3 3 3 3 3 3 4 5 4
9 5 8 13 11 8 7 8 2 5 6 1 1 1 19 5 7 5 1 5 7 5 8 12 12 14 13 7 9 8 9 8 8 9 10 11 11 12 12 13 14 15 14 11 11 12 13 12 13 14 12 11 11 12 13 11 11 11 13 13 13 13 12 8 5 5 7 6 6 8 8 8 7 8 6 6 5 5 4 4 4 4 3 3 2 2 3 3 3 3 3 3 3 3 3 5 5
11 0 0 1 2 5 4 3 5 7 2 4 4 1 9 23 7 5 9 8 8 7 8 10 13 15 11 11 10 6 9 10 11 12 13 13 14 16 17 16 15 15 12 11 12 12 14 14 14 14 12 12 11 12 14 12 13 12 12 11 10 10 10 10 10 8 8 8 9 9 8 8 7 7 7 6 6 5 5 4 4 3 3 3 3 4 4 3 3 3 2 3 3 4 4 5 6
2 1 3 2 1 0 1 1 4 3 4 8 8 6 4 14 3 12 12 7 9 9 9 12 16 14 11 13 13 7 10 12 12 11 13 14 15 15 13 14 13 11 11 13 13 13 12 12 13 13 13 12 12 14 14 13 12 12 12 11 10 8 8 8 8 8 9 9 9 8 8 8 7 7 7 7 6 6 5 5 4 4 4 4 3 4 3 3 4 4 4 3 4 5 4 4 4
1 1 4 2 1 1 1 1 1 4 1 14 8 10 7 21 14 4 6 11 11 11 12 16 16 13 11 12 10 8 8 8 9 11 11 13 12 12 12 11 11 12 12 10 10 10 11 11 13 15 14 13 12 14 14 13 12 11 12 12 12 10 9 7 9 9 9 9 10 9 8 8 8 7 7 7 6 6 5 5 5 5 4 4 3 3 4 4 3 3 4 4 4 5 5 5 6
3 1 1 1 0 1 0 0 1 2 8 16 10 13 11 15 10 10 7 8 11 10 9 11 10 9 9 10 9 8 8 8 8 9 8 9 9 10 10 12 12 10 9 10 11 12 12 13 14 16 15 12 13 14 15 15 13 12 13 14 14 13 12 11 11 10 9 8 9 8 8 7 7 8 7 7 7 6 6 5 5 4 4 4 4 4 4 4 4 4 5 5 5 5 5 5 5
2 1 1 0 3 2 1 1 1 2 15 7 14 16 16 13 3 1 9 9 14 14 14 15 9 11 10 8 8 9 9 8 8 8 7 8 8 9 10 11 12 12 11 12 12 12 13 13 13 15 14 14 13 14 15 15 14 14 12 13 14 13 14 12 14 13 12 12 10 10 8 7 7 7 7 7 7 7 7 6 5 5 4 4 4 4 4 4 5 4 3 3 4 5 5 5 6
2 4 2 3 4 1 2 2 2 6 13 1 9 13 6 22 16 1 1 2 9 10 9 10 13 12 10 9 10 8 8 8 9 8 8 9 11 12 13 11 11 13 14 15 15 14 13 13 15 16 16 15 15 14 16 16 14 14 14 14 13 12 13 12 12 12 11 11 10 10 9 8 7 7 7 8 8 8 7 7 6 6 5 5 5 5 4 4 3 2 3 4 4 5 5 5 6
8 7 7 5 3 4 6 5 5 5 7 5 6 8 13 10 7 10 11 8 10 11 10 9 10 9 9 9 7 7 8 9 9 9 9 10 11 11 11 12 13 13 14 14 14 14 13 13 15 17 17 15 13 14 16 16 17 15 13 13 12 12 12 12 11 11 11 10 9 10 10 10 9 9 9 8 8 8 7 6 6 5 5 4 4 3 3 2 3 3 4 4 5 5 5 6 7
14 5 10 11 8 2 2 4 7 8 8 1 2 4 7 2 6 12 19 17 11 11 13 10 7 7 8 6 6 6 7 6 8 9 10 11 12 12 13 13 12 12 13 14 13 14 13 14 15 18 16 17 16 17 15 17 15 14 13 12 12 11 11 11 10 9 11 11 9 10 9 8 9 8 9 7 8 7 7 6 5 4 4 4 3 4 3 3 3 3 3 4 5 5 6 6 6
5 5 2 2 8 2 9 9 7 5 5 8 5 7 3 8 0 6 9 14 14 10 13 10 8 6 7 4 7 8 7 7 6 7 8 8 9 9 10 11 12 12 13 13 14 14 14 16 16 18 18 17 16 16 16 17 15 13 12 13 13 12 10 9 8 8 9 10 10 10 9 9 8 8 7 7 6 7 6 5 4 4 4 4 4 4 4 3 3 3 4 4 6 4 5 6 6
4 8 8 11 1 7 4 6 6 3 4 19 3 9 11 7 18 16 13 8 12 11 11 9 8 9 10 8 6 6 7 7 8 9 9 10 8 9 11 11 11 11 12 15 16 17 19 17 16 17 16 14 16 17 16 14 14 14 15 13 12 12 12 13 12 12 11 9 9 9 9 8 7 7 7 6 7 6 6 6 5 4 4 4 4 3 3 3 3 4 5 5 7 5 5 6 6
8 3 6 1 2 3 3 3 1 3 6 15 5 11 16 8 16 3 14 13 12 12 13 13 13 13 12 6 7 8 10 10 8 7 8 10 12 13 11 11 12 14 15 15 16 15 14 15 16 17 16 18 18 17 16 15 16 16 14 14 13 13 12 11 10 12 10 10 8 8 7 8 8 7 7 6 6 6 6 5 5 4 3 3 4 3 4 4 3 5 5 6 6 4 6 5 6
2 4 3 4 3 1 3 2 5 5 8 8 12 14 14 18 18 8 3 13 15 15 15 15 15 15 11 7 9 8 6 5 8 10 10 10 11 12 14 15 14 13 13 14 13 13 12 12 14 15 19 20 18 15 13 12 13 12 12 14 14 12 10 10 10 10 10 11 11 10 9 8 8 7 8 7 7 6 5 4 4 4 4 5 4 4 4 3 4 5 5 6 5 5 6 6 6
2 2 3 0 2 2 7 7 3 4 11 5 17 16 18 11 5 4 9 12 13 13 10 13 14 12 9 8 8 8 7 10 10 10 11 12 12 13 14 13 13 15 15 13 13 12 14 15 14 14 12 10 12 14 15 15 15 12 11 11 11 11 11 11 11 12 11 11 11 10 9 9 9 7 7 7 6 6 5 5 5 6 5 5 4 4 3 3 3 4 5 6 6 5 6 7 6
3 1 4 0 1 1 2 3 6 6 6 7 8 14 21 5 4 7 7 11 11 10 11 10 10 9 10 9 8 6 7 8 9 10 10 11 13 11 11 12 13 9 7 7 10 14 13 10 12 14 16 17 16 15 14 14 12 13 13 15 14 13 13 11 11 11 11 10 9 10 9 8 8 8 7 7 7 7 6 6 6 5 5 4 4 3 3 3 3 4 5 6 6 6 7 7 6
12 15 14 16 10 4 5 13 2 4 6 6 6 16 21 4 5 8 7 6 9 10 12 11 10 11 9 6 6 7 7 8 9 9 9 10 9 10 7 5 3 6 9 12 13 9 10 14 15 13 12 13 15 15 16 15 14 13 14 14 14 11 12 10 11 11 11 10 10 10 9 9 9 7 8 7 7 6 6 6 5 5 5 4 3 3 3 3 4 5 6 6 6 7 7 8 6
Wind_Direction
281 243 241 238 255 257 312 231 315 200 231 247 260 230 126 77 123 119 122 78 242 122 79 147 36 21 19 27 17 44 46 37 31 202 215 149 126 102 100 92 104 97 97 85 99 85 67 57 80 79 77 74 72 72 69 69 67 65 65 66 64 64 61 60 56 54 54 53 51 51 50 49 47 46 45 43 45 43 36 35 31 28 28 24 26 35 37 35 35 39 41 44 43 40 34 29 23
271 259 254 272 270 359 255 167 245 277 206 265 249 217 136 99 136 152 141 173 35 72 63 45 33 58 82 357 323 13 71 39 35 109 84 122 136 106 120 41 89 99 95 94 95 87 68 43 82 83 83 83 83 80 76 74 72 71 71 71 69 67 65 63 60 59 58 56 54 53 51 50 49 46 44 44 43 45 38 36 33 28 26 24 21 25 34 34 35 37 39 42 43 35 31 29 24
311 308 266 203 267 232 310 312 268 291 287 258 3 60 125 99 144 152 136 104 97 84 65 55 26 37 335 292 302 333 335 119 90 88 103 143 138 175 135 149 115 97 57 73 79 83 74 53 72 85 86 87 87 84 82 79 76 74 75 74 73 70 69 67 64 63 61 59 59 57 55 53 50 48 47 47 48 48 45 42 39 34 28 24 24 22 23 23 26 26 26 29 39 34 27 23 22
284 286 301 280 283 151 279 176 253 274 284 281 105 166 185 131 93 77 69 78 79 108 115 100 104 330 359 197 259 18 106 102 86 129 123 180 123 139 147 164 161 110 140 100 87 75 78 81 89 91 91 91 86 84 82 81 81 80 78 79 76 74 72 69 67 66 65 63 62 61 59 56 53 51 48 46 45 45 44 43 40 37 32 29 27 26 27 20 19 21 21 20 27 26 23 20 13
285 269 214 309 294 215 270 229 249 240 258 271 54 239 91 110 104 98 75 79 84 96 131 98 77 50 61 10 0 308 112 92 65 79 98 93 128 121 146 177 155 141 131 106 102 97 83 86 93 94 93 90 88 86 86 84 84 84 83 81 78 78 75 72 71 69 67 66 65 62 60 57 54 54 51 49 46 44 42 40 39 37 35 32 30 29 30 31 27 25 25 24 25 23 21 19 16
267 280 177 55 296 63 349 308 272 240 245 289 306 130 97 96 108 108 107 72 55 58 29 128 25 98 203 137 15 110 194 197 133 97 127 129 116 143 150 189 134 124 100 68 78 86 86 90 91 94 96 97 95 94 93 91 90 88 87 83 82 79 76 75 73 70 69 68 66 64 62 59 57 55 54 52 49 47 44 41 38 36 35 33 31 30 29 29 28 28 28 26 26 23 20 16 15
303 272 188 228 274 135 256 249 261 270 296 327 10 59 119 89 115 115 123 110 71 88 43 148 119 54 238 92 78 57 104 4 141 66 108 144 131 137 165 150 106 113 113 97 87 72 76 101 103 103 102 103 101 99 98 97 95 92 89 87 84 80 79 77 74 72 70 69 66 65 63 60 58 56 55 53 51 49 46 44 41 37 35 33 32 30 28 28 28 26 24 23 23 21 17 13 10
243 56 151 203 249 114 231 246 262 275 278 18 285 54 23 113 125 134 157 180 175 167 180 195 109 299 215 143 215 128 73 51 101 116 118 122 135 153 159 125 121 120 101 100 97 92 81 102 108 109 108 104 104 101 100 98 96 93 91 89 85 83 81 78 74 73 71 68 67 65 63 61 57 56 55 53 51 49 47 45 42 38 35 33 31 28 25 24 25 24 21 20 19 15 13 8 5
226 175 359 25 277 215 243 244 251 245 220 161 98 77 334 117 153 144 159 194 104 207 150 166 180 124 155 164 92 186 100 129 123 124 123 133 138 161 155 142 131 128 114 112 113 102 64 96 105 104 103 103 101 99 98 96 94 93 92 90 88 86 84 80 77 74 72 71 69 67 65 62 60 57 56 54 51 48 47 45 42 38 35 32 29 26 23 21 20 19 18 16 15 11 7 4 1
252 168 230 232 287 274 261 246 233 225 207 89 110 137 177 109 160 182 158 176 162 174 170 152 172 221 144 198 102 214 176 142 131 114 129 138 147 150 121 112 109 116 111 114 110 101 97 79 91 96 95 94 94 95 93 91 90 90 90 88 88 87 84 82 79 76 73 71 69 67 65 63 60 58 56 53 51 48 46 45 43 40 38 35 32 28 25 21 19 17 14 12 10 7 3 1 358
243 161 241 338 231 249 251 266 290 50 92 171 99 132 166 131 173 196 171 193 127 166 105 133 188 226 258 267 76 301 118 139 143 141 147 143 138 124 114 99 126 129 122 113 120 132 114 87 78 82 85 86 88 90 90 90 89 88 87 86 85 84 82 81 80 77 74 71 68 67 64 61 59 56 53 49 47 44 42 40 40 39 36 34 32 29 26 23 19 16 14 10 6 3 359 358 357
272 200 143 249 262 253 276 304 326 335 123 145 208 151 136 164 179 188 197 206 157 142 154 160 206 162 217 250 161 150 141 155 151 142 139 139 133 132 114 108 104 96 110 131 139 129 121 119 88 80 83 83 83 84 85 85 86 86 84 84 83 81 80 79 78 77 76 74 71 67 64 59 56 54 51 48 44 41 37 35 34 34 32 29 28 27 26 22 19 16 13 8 4 1 358 356 356
265 312 213 223 252 268 283 320 292 337 315 247 166 151 124 183 196 193 211 219 166 167 187 192 100 327 230 199 42 144 167 174 143 142 139 152 141 125 133 123 123 128 137 145 119 133 140 120 121 100 99 88 81 82 83 83 85 85 83 82 79 78 77 77 76 74 75 74 73 70 65 61 56 53 50 47 42 37 34 31 31 30 28 26 24 24 22 19 17 13 10 7 2 360 357 357 357
242 253 336 281 287 275 269 258 293 280 286 35 48 115 153 172 193 223 255 210 207 191 339 178 147 148 261 94 223 180 189 161 135 138 151 146 128 133 128 130 129 130 148 146 137 134 139 137 125 141 138 125 115 87 86 93 90 89 88 85 82 79 76 73 71 69 67 69 72 74 71 65 61 57 54 51 45 38 30 26 26 28 26 24 23 21 19 18 14 11 8 4 1 358 355 354 355
287 321 317 261 277 306 270 257 239 324 292 89 91 124 167 230 202 212 246 246 175 17 298 120 153 92 254 198 205 191 161 154 137 142 151 122 131 128 118 126 138 141 167 161 148 150 147 139 150 162 169 151 148 126 111 100 102 99 97 94 90 87 84 81 78 74 74 77 81 91 95 94 76 66 61 56 53 46 35 20 16 24 23 22 20 20 18 15 12 10 8 5 1 358 355 349 346
246 347 248 265 266 258 282 220 267 285 270 85 224 97 179 194 76 213 15 73 75 280 38 207 218 212 317 336 137 118 140 132 139 142 129 130 134 118 127 144 150 157 179 163 150 158 153 147 149 151 149 158 134 130 132 127 116 111 105 101 98 94 93 95 101 101 96 116 141 154 176 138 112 83 62 66 69 59 50 32 17 20 22 20 18 14 14 12 9 9 8 6 2 360 356 349 343
299 107 273 240 271 252 224 194 124 266 123 144 170 173 167 203 148 73 148 249 235 169 212 206 187 329 293 101 131 121 125 126 136 134 129 141 138 143 158 167 164 164 170 177 160 167 153 154 153 149 152 135 128 134 138 138 141 127 121 119 117 117 113 109 108 125 157 160 243 175 174 103 104 97 89 29 81 124 94 48 19 15 19 17 13 8 10 9 6 8 8 5 4 5 0 352 350
173 206 202 258 245 252 357 336 351 66 343 116 235 179 204 250 117 183 62 261 239 255 194 221 194 204 103 138 125 128 129 139 148 146 156 158 165 162 178 187 172 180 172 184 180 166 161 160 162 146 137 139 138 136 147 155 174 162 148 153 143 135 141 133 109 112 77 322 271 92 78 27 109 108 109 95 90 61 43 44 358 9 13 15 9 11 11 9 5 10 9 6 8 7 1 347 350
197 238 224 245 259 271 181 6 344 14 294 7 164 169 225 256 144 159 168 220 207 238 242 200 218 184 97 140 132 134 143 151 158 164 165 174 182 179 181 181 185 168 179 182 191 168 169 165 167 147 150 153 147 154 164 169 167 139 137 132 139 140 140 107 120 98 91 341 343 85 85 8 81 96 105 20 16 20 149 349 350 11 11 19 7 16 11 5 6 9 8 7 8 1 358 344 343
228 248 259 262 283 315 302 333 292 313 1 297 293 186 195 246 188 94 210 255 211 220 228 215 217 216 168 161 150 151 156 163 170 173 179 185 187 184 180 183 189 187 179 181 179 166 169 165 176 155 158 159 152 165 171 173 163 157 158 162 159 157 154 141 119 105 102 49 33 79 97 330 74 70 49 32 37 40 27 20 17 30 3 15 7 10 12 357 1 1 4 2 2 354 351 347 345
206 168 228 247 178 353 329 42 11 25 60 299 283 309 225 232 235 137 201 251 247 245 219 208 214 219 190 167 160 162 166 171 179 185 185 191 194 196 190 188 187 183 171 165 165 175 175 163 178 152 153 163 168 170 179 169 165 150 143 149 137 139 156 145 135 121 104 72 36 90 121 61 85 76 68 39 38 43 37 24 17 16 9 8 8 0 11 350 351 356 359 355 359 348 347 343 343
3 233 250 258 278 232 332 69 48 58 36 351 286 283 246 221 240 192 203 221 251 213 230 215 218 210 192 166 173 170 174 178 183 190 194 192 192 196 192 182 176 178 161 173 175 173 175 167 167 153 156 175 175 167 175 158 152 145 151 146 146 126 128 127 129 125 89 51 81 352 75 62 68 74 59 52 41 46 45 26 14 16 13 1 10 352 4 358 349 350 356 352 347 347 340 338 330
239 251 246 251 255 267 165 178 76 75 196 219 251 266 285 230 253 218 214 223 242 202 98 35 220 218 209 166 164 176 179 185 188 194 194 195 198 199 196 184 176 181 176 179 164 173 171 166 160 156 163 169 177 171 144 141 171 147 146 153 142 149 147 135 117 103 95 69 50 28 48 56 71 70 62 53 47 53 45 38 10 17 8 356 1 357 1 359 350 348 349 345 348 342 340 337 334
238 257 288 302 317 267 274 261 133 182 234 247 259 29 277 251 250 229 238 235 242 252 281 177 105 58 92 145 174 181 186 189 195 196 194 197 194 195 192 187 180 172 169 173 168 169 173 168 162 159 164 165 180 161 141 160 169 127 124 126 131 141 138 122 106 117 127 86 59 26 12 77 87 85 61 55 57 61 48 43 10 14 4 349 7 1 6 357 351 348 340 345 344 338 334 332 335
225 260 249 261 286 274 274 151 183 206 236 257 301 282 245 235 251 294 256 245 236 235 240 226 169 143 136 158 181 188 193 198 201 201 202 205 199 196 197 193 177 171 176 177 168 167 175 165 163 165 162 166 170 158 160 162 144 128 137 159 133 157 131 126 132 151 122 111 95 61 25 64 74 91 74 69 72 61 50 46 24 22 350 359 25 357 12 4 349 341 336 344 342 337 337 331 330
217 244 262 283 261 260 247 245 206 207 233 207 238 244 254 253 294 266 258 252 246 250 231 222 186 198 179 177 183 188 196 200 199 198 200 195 191 188 199 196 184 183 182 173 169 170 170 164 166 169 165 164 165 165 167 151 147 145 163 148 140 154 126 125 150 132 126 123 116 102 54 76 79 89 88 70 78 59 54 51 32 9 359 14 32 8 5 9 338 331 329 334 333 331 328 315 318
109 303 320 311 296 302 272 248 237 206 215 184 215 247 247 240 154 272 248 243 232 234 237 232 202 204 208 198 188 195 196 202 199 197 189 191 195 195 196 196 196 188 166 179 173 167 169 163 169 170 162 161 162 169 164 150 150 151 156 136 150 148 128 142 154 128 111 106 121 128 107 67 92 80 94 74 70 72 64 62 18 7 16 17 38 6 357 341 318 305 304 311 324 321 307 309 315
314 344 313 282 272 258 254 257 239 221 237 200 210 248 259 236 150 238 259 67 191 214 223 225 221 213 207 211 202 198 204 207 199 185 195 189 199 196 192 195 198 183 173 181 175 160 165 170 167 171 164 161 161 168 155 151 155 151 147 141 154 142 147 163 142 137 122 114 125 125 108 85 108 118 110 102 111 91 81 70 3 41 359 37 30 359 329 311 304 299 314 333 323 314 321 319 309
339 12 309 280 274 264 236 230 231 189 239 175 193 290 263 215 228 240 252 223 224 218 220 218 216 216 203 207 211 208 209 200 191 197 203 202 198 191 197 195 190 188 180 172 168 162 171 169 169 171 163 160 163 164 159 152 150 147 150 150 143 145 160 145 141 146 129 132 129 119 114 131 112 110 112 115 111 104 94 76 28 38 30 51 19 332 318 331 339 330 327 342 340 339 324 316 319
256 229 243 288 277 264 251 235 211 180 213 141 125 273 259 216 219 244 251 224 212 221 225 223 220 215 205 206 215 218 213 201 201 205 203 202 195 193 196 193 189 188 173 171 164 173 169 168 169 164 163 162 165 157 153 147 144 145 149 140 138 153 160 146 147 140 134 137 130 121 123 103 95 91 90 98 58 79 82 71 75 10 54 43 2 328 346 342 322 322 333 350 330 323 316 314 319
245 266 237 241 310 264 258 219 178 184 142 152 169 232 268 272 206 230 247 207 184 211 217 219 218 219 215 212 215 218 216 207 209 207 200 198 195 191 194 187 187 184 167 176 177 171 164 169 168 166 161 162 164 153 156 150 143 150 151 138 147 165 154 144 146 135 141 142 135 144 129 122 95 95 84 83 95 101 80 65 40 54 59 37 358 342 335 322 318 324 344 333 316 316 309 305 305
215 329 245 235 216 268 287 18 153 186 163 186 140 252 252 267 271 228 231 195 185 205 213 216 220 223 221 217 219 222 223 213 215 209 199 198 192 190 188 189 183 182 182 178 168 164 169 170 170 160 160 164 167 156 155 149 150 150 148 142 152 163 152 149 152 147 159 148 143 144 134 125 117 123 130 118 115 86 106 90 48 49 55 44 3 326 332 319 320 332 329 320 322 314 313 301 295
220 198 251 253 238 264 282 211 197 175 109 204 181 227 237 247 253 9 51 164 178 202 214 214 218 224 228 223 218 224 230 225 218 211 203 197 197 190 189 185 183 185 179 172 170 167 168 169 168 162 164 166 166 154 149 146 146 148 148 147 153 150 154 151 150 151 153 149 146 146 150 145 144 143 145 139 143 141 102 82 47 63 64 47 312 313 314 314 325 314 303 312 344 311 310 301 299
254 201 231 230 242 266 255 8 225 195 143 191 220 235 246 252 252 151 19 180 184 212 221 225 225 225 228 227 218 220 224 222 217 207 206 194 197 193 188 188 183 181 179 174 170 170 170 169 168 164 160 163 161 153 149 146 146 145 140 140 145 156 155 155 152 151 158 164 155 148 150 149 147 153 151 150 125 114 122 138 191 158 128 80 342 297 292 298 295 291 323 336 331 303 295 300 299
225 227 257 264 242 228 249 247 201 197 195 218 208 234 255 254 255 267 246 216 213 217 224 238 244 242 245 240 236 223 225 222 224 205 199 196 191 193 185 184 180 178 177 173 168 165 162 165 162 164 160 161 156 150 143 142 141 134 130 135 146 161 164 159 153 159 168 165 157 146 145 148 145 147 156 146 154 141 127 109 120 214 134 139 260 304 301 304 310 6 357 318 302 288 285 285 285
265 272 270 270 275 279 269 272 140 177 197 217 218 222 238 252 252 253 261 247 234 236 233 241 245 246 247 243 242 238 228 230 219 198 191 193 191 186 181 176 177 175 172 169 166 164 162 162 160 163 164 160 152 151 149 148 147 155 150 144 154 167 175 165 162 168 171 161 156 140 145 151 147 153 153 150 127 125 131 151 105 67 189 186 236 302 299 306 344 344 324 312 304 295 283 279 293
260 268 271 267 269 273 268 273 213 200 200 217 226 235 244 256 255 250 257 261 257 254 245 239 236 240 243 243 241 239 234 234 194 191 183 188 188 183 176 169 171 171 171 168 166 170 165 169 165 172 170 166 162 163 166 163 161 160 158 171 174 172 173 169 169 173 168 165 149 144 147 153 143 143 144 137 156 157 148 171 177 191 182 198 205 230 243 338 337 310 287 286 293 302 306 311 308
246 254 262 271 265 268 266 284 146 229 189 242 231 239 244 254 259 256 254 251 251 249 250 250 253 251 252 244 246 240 236 207 157 168 178 179 181 176 168 166 164 170 178 169 172 174 170 171 175 171 170 172 172 172 169 174 176 176 171 177 165 173 170 172 173 181 170 162 149 149 148 157 147 149 156 152 162 153 158 159 155 175 141 221 219 237 311 286 289 273 262 295 271 301 300 320 306
276 269 278 288 269 275 282 284 147 237 164 264 272 267 260 263 265 264 254 250 247 246 242 250 251 260 259 256 251 246 213 193 171 174 170 179 177 174 170 173 180 178 175 177 172 173 173 174 177 173 176 175 176 173 173 178 174 171 168 166 166 163 176 161 160 166 160 152 151 149 153 155 152 158 154 156 157 162 164 153 171 173 179 149 348 309 295 314 299 300 294 278 304 298 290 283 308
259 261 269 255 262 272 289 148 225 199 198 241 226 265 262 266 266 263 259 255 249 243 248 253 251 253 255 254 248 236 209 180 178 173 177 179 175 174 173 180 180 174 176 175 174 178 176 178 178 177 180 178 176 176 176 172 165 159 155 151 158 154 162 158 152 156 153 143 154 154 160 158 157 161 157 158 156 155 161 170 165 147 197 175 189 283 298 274 280 283 282 294 308 304 309 295 342
229 227 241 256 255 246 234 263 182 217 229 252 309 281 266 245 260 260 256 245 249 246 245 249 257 253 249 254 269 223 206 183 177 176 176 172 176 184 185 180 171 178 181 183 179 181 183 181 180 178 179 180 178 172 171 162 152 147 131 109 94 95 91 116 120 138 156 154 147 162 171 160 161 160 158 161 163 167 172 171 160 172 161 182 178 266 271 257 250 245 285 287 267 254 289 283 310
256 218 211 238 250 264 269 280 327 336 296 173 184 303 262 216 224 243 276 140 224 235 225 238 243 256 255 248 248 240 212 178 178 183 181 181 183 180 181 178 180 183 189 189 183 183 180 179 178 178 179 178 178 174 169 167 167 158 151 148 151 151 160 164 179 177 174 176 177 160 160 166 163 160 159 164 163 164 170 166 158 156 174 198 204 216 230 258 280 279 248 236 262 264 261 286 288
273 249 208 241 255 259 270 286 344 273 241 315 341 192 292 165 249 231 222 197 218 237 205 231 241 244 251 227 232 222 193 190 184 178 175 175 182 179 184 186 187 189 193 181 180 182 181 179 179 178 179 178 178 175 172 168 166 170 172 172 171 173 172 191 174 165 166 165 158 165 168 165 166 161 165 164 166 169 169 167 163 168 177 186 208 221 246 246 244 243 253 250 246 257 280 280 274
265 140 327 112 261 262 255 246 206 253 322 266 156 130 271 290 239 208 208 194 216 225 230 235 241 241 247 258 253 191 193 185 180 183 182 183 181 183 188 190 189 193 183 178 182 182 182 180 178 180 178 180 180 174 177 176 172 174 175 178 177 180 181 173 173 173 165 162 165 166 161 163 163 160 161 167 169 169 169 169 164 167 175 195 199 216 221 229 234 254 248 237 245 246 247 257 271
234 286 24 69 60 71 44 199 260 260 340 269 168 159 262 259 271 179 163 200 213 218 220 232 237 237 232 240 249 203 194 190 180 181 182 183 186 190 186 188 193 184 181 184 186 184 180 179 178 178 181 179 180 177 179 180 178 178 178 176 180 186 173 166 165 162 157 158 155 156 156 161 162 164 166 168 172 169 169 169 166 170 178 198 199 214 223 222 230 239 255 266 259 262 239 244 257
234 170 69 80 72 71 206 216 289 314 296 265 159 168 217 274 257 244 203 202 206 212 216 231 234 234 223 226 233 206 196 191 187 183 181 186 186 182 183 179 177 188 187 184 181 177 181 179 181 181 186 182 180 180 180 180 180 175 181 185 182 176 171 160 157 156 152 154 155 159 159 161 164 164 169 167 168 171 168 166 168 174 187 199 204 214 223 234 242 245 243 244 247 250 246 246 247
147 130 95 38 307 208 67 152 161 354 250 258 170 190 181 270 289 190 156 208 197 204 224 236 241 245 241 225 217 189 187 181 181 182 186 179 172 167 166 175 182 180 181 178 181 184 183 184 183 187 188 182 180 181 180 184 181 184 187 186 183 178 172 158 154 159 154 154 161 165 167 167 163 166 165 172 169 170 172 170 170 180 185 194 203 208 220 219 228 236 236 235 236 235 241 243 255
131 113 153 175 309 33 19 314 109 186 269 262 174 181 186 232 335 305 192 182 191 192 213 219 212 233 233 222 220 194 178 175 172 170 172 154 152 165 167 175 176 178 176 183 185 184 186 187 186 188 189 187 181 180 182 185 186 191 190 186 185 181 172 169 169 168 170 169 168 168 165 161 169 165 164 166 176 173 171 174 175 179 188 192 206 212 220 218 221 218 230 237 249 247 244 242 241
161 125 122 159 251 60 282 72 256 200 244 233 175 171 227 231 237 312 247 173 204 209 216 213 201 213 223 222 217 188 170 160 167 169 163 164 168 172 178 177 173 179 184 186 187 186 186 187 188 189 195 187 184 181 185 186 188 193 191 188 187 181 181 175 173 170 171 169 166 164 166 170 164 163 170 167 175 172 168 171 176 182 189 195 206 211 216 209 208 226 240 247 246 248 244 244 244
164 161 167 133 252 221 261 240 216 265 258 261 172 185 226 265 271 208 238 221 203 209 217 214 195 190 205 215 204 173 167 165 169 168 172 174 176 179 181 179 181 183 186 187 185 185 187 190 191 194 196 188 184 183 187 188 194 193 190 188 186 182 183 179 178 172 172 169 167 168 171 171 171 173 170 177 173 168 167 169 171 177 181 190 194 204 218 227 226 231 235 243 250 253 253 247 247
196 177 148 196 179 163 238 223 236 235 253 296 208 93 233 89 245 181 208 220 207 202 212 214 201 197 214 216 173 153 150 169 165 171 178 179 181 179 182 183 183 186 187 186 186 189 186 193 194 195 192 192 186 188 186 192 193 192 190 188 185 184 181 179 178 172 167 167 168 166 168 165 166 170 171 167 161 161 160 157 164 166 180 198 204 209 206 206 215 231 238 241 247 243 245 248 250
203 179 193 290 226 165 227 242 258 288 339 295 184 214 240 251 164 196 211 211 214 207 216 213 213 219 235 194 168 172 176 170 172 175 183 189 183 181 182 186 188 187 186 186 189 188 191 198 197 197 196 190 189 187 193 193 191 187 187 187 187 181 176 171 168 165 166 165 165 165 166 164 161 154 153 147 149 148 152 155 161 173 185 199 206 204 206 210 220 234 249 247 252 243 243 244 247
214 133 201 206 136 181 250 309 280 289 293 264 211 265 259 303 267 233 233 210 220 215 216 218 213 219 226 211 189 187 184 178 179 182 189 187 181 190 192 192 190 185 185 193 193 191 194 192 193 197 196 191 191 193 193 191 188 184 190 186 181 180 178 177 174 169 163 160 157 160 160 159 149 147 148 144 143 144 151 156 171 180 190 199 202 203 205 212 218 229 237 244 251 244 244 246 249
102 217 236 82 19 112 151 228 356 211 234 273 267 259 286 296 290 134 197 206 211 208 210 210 216 219 226 204 207 198 194 192 184 190 192 191 191 190 192 196 196 194 194 193 197 197 197 195 195 193 191 194 196 190 190 189 188 189 185 186 185 182 180 175 169 165 160 155 155 153 147 150 160 153 147 145 142 150 153 161 166 178 188 196 204 211 208 213 217 231 238 246 247 244 248 248 247
150 190 326 133 248 253 243 111 247 259 253 270 279 274 270 257 258 283 255 202 206 209 207 208 214 220 222 215 219 214 186 167 185 191 189 196 196 197 194 197 199 201 196 197 196 193 196 200 199 194 197 200 193 187 187 188 189 191 187 184 181 178 175 172 167 161 158 162 161 160 159 155 144 147 146 145 150 155 155 165 165 186 196 204 205 208 206 213 217 234 245 253 251 246 245 251 244
125 36 335 218 85 212 153 192 204 163 259 285 280 293 274 249 232 229 212 195 202 203 203 213 217 217 216 218 219 209 188 192 196 201 198 195 201 200 197 195 193 196 196 196 194 192 197 198 192 199 200 195 190 189 186 188 191 184 182 174 178 176 173 170 168 164 165 166 163 157 153 154 159 150 152 149 153 155 160 173 181 187 199 201 205 206 200 210 221 234 244 252 254 247 252 253 256
226 200 262 264 183 247 98 298 211 198 219 223 267 288 273 281 195 210 193 188 190 190 202 207 220 227 216 209 214 215 201 206 208 203 209 206 199 201 200 197 198 198 195 190 191 196 199 191 200 197 193 194 193 194 185 190 181 184 176 179 177 171 172 167 163 166 163 163 158 156 159 156 143 157 150 151 156 162 167 174 181 189 195 204 202 212 201 205 219 240 243 247 250 249 254 257 260
187 189 209 199 173 189 215 250 223 230 205 230 235 251 270 245 75 109 125 192 184 197 204 207 210 219 223 224 220 206 214 222 214 212 204 205 209 201 201 208 219 196 192 191 193 184 190 198 200 196 193 195 195 190 191 187 182 180 180 177 173 169 167 165 163 164 163 161 161 160 154 148 154 153 148 154 161 164 169 176 183 195 199 201 209 209 211 206 234 244 250 245 248 248 249 256 255